Wind_Speed
28 29 30 30 29 28 28 28 29 28 28 27 27 28 28 28 28 28 28 29 30 30 30 30 31 31 31 31 32 33 33 33 33 33 34 34 34 35 35 35 36 36 37 37
26 27 29 30 30 30 29 28 28 28 28 27 28 29 29 28 29 29 29 30 30 30 30 31 31 31 31 31 31 32 32 33 33 34 34 34 35 35 35 35 35 36 36 36
27 27 29 30 28 28 28 28 29 28 27 28 28 28 28 29 30 30 29 30 30 30 31 31 31 31 31 32 32 32 32 33 34 34 34 35 35 36 35 35 35 35 35 36
27 28 29 26 26 27 27 27 27 28 28 29 28 29 29 30 30 30 30 29 30 31 31 31 31 31 32 32 32 32 32 33 33 34 34 35 35 35 35 35 35 35 36 37
25 26 26 24 24 25 26 26 26 26 27 28 29 29 28 29 30 30 30 30 29 30 31 31 31 32 32 32 32 32 32 33 33 34 34 34 34 34 34 35 35 36 36 36
25 26 25 23 23 23 26 26 25 26 26 27 29 30 28 29 30 31 31 31 30 30 31 31 32 32 32 32 31 31 32 32 32 33 33 33 34 34 35 35 35 36 35 35
25 25 25 23 23 23 24 24 24 25 25 26 28 29 29 30 30 30 31 31 31 30 31 31 32 33 33 32 32 32 32 32 32 32 32 33 33 34 34 34 35 35 35 34
25 26 23 22 23 23 23 23 23 24 25 26 26 27 28 29 29 29 29 30 31 31 31 32 33 33 34 33 33 33 32 32 32 32 32 32 32 33 34 34 34 34 34 33
26 26 24 23 23 23 23 22 22 23 24 25 25 26 26 27 28 28 28 29 30 31 32 33 33 33 34 34 34 33 33 33 32 33 33 33 33 33 33 34 34 34 33 33
24 24 23 23 23 22 22 23 23 24 24 24 25 25 25 26 26 27 27 27 29 30 31 32 32 33 33 33 34 34 33 33 33 33 33 32 32 33 33 33 34 34 33 33
24 23 23 23 23 22 22 24 24 24 24 25 25 25 25 25 24 25 26 27 27 28 29 30 30 30 30 31 32 32 32 33 33 32 32 31 31 32 31 31 31 31 32 31
23 23 23 22 23 23 23 24 23 23 23 24 24 24 24 24 24 25 25 25 25 25 25 26 27 28 29 28 29 29 30 30 30 31 31 31 30 30 29 30 30 30 31 30
22 23 23 22 22 22 23 23 23 23 24 24 25 25 25 25 26 26 25 24 24 24 24 24 25 26 26 26 27 28 29 29 29 29 29 29 29 29 29 30 30 30 30 30
22 22 22 21 21 22 23 23 24 24 24 24 24 25 25 25 25 26 25 25 25 24 24 24 25 25 26 26 27 27 27 28 28 28 28 28 28 29 29 29 29 28 28 28
21 21 21 21 22 23 24 24 24 24 24 24 24 24 24 24 25 25 26 26 25 25 26 26 26 26 26 27 27 26 26 26 27 27 27 27 27 28 28 28 27 27 26 26
20 20 21 21 22 23 24 24 24 24 24 24 24 24 24 24 24 25 25 25 26 26 26 26 26 26 26 26 26 25 25 25 25 26 26 26 26 26 26 26 25 25 24 25
19 20 21 21 22 23 23 23 23 23 23 23 23 23 23 24 24 24 24 24 25 25 25 25 25 25 24 24 24 24 23 23 24 24 24 25 25 25 25 24 24 24 24 24
21 21 21 22 22 22 23 23 23 23 23 22 22 22 23 23 23 23 23 24 24 23 23 23 23 23 23 23 23 22 22 23 23 23 23 23 23 23 23 23 22 22 22 22
22 21 21 21 22 22 22 22 22 22 22 22 22 23 22 22 22 22 22 22 22 22 23 23 22 23 22 22 22 22 22 22 22 22 22 22 22 22 22 21 21 21 21 21
20 21 21 22 21 21 21 21 21 21 21 21 22 22 22 21 21 21 21 21 21 21 22 22 22 22 21 21 21 21 21 20 21 21 21 21 21 21 21 20 21 21 21 20
20 20 21 20 19 19 20 20 21 20 20 20 20 20 20 20 20 20 20 21 21 21 20 20 20 20 20 20 20 20 20 20 20 20 20 20 20 20 20 20 20 20 20 20
19 19 19 19 18 19 19 20 20 20 19 18 18 17 18 18 18 19 19 19 18 18 18 18 18 18 18 18 18 19 19 19 20 20 20 19 19 19 19 20 20 20 20 19
18 18 17 17 18 18 18 18 18 18 17 16 16 16 16 16 16 16 16 16 16 16 16 16 16 16 16 17 18 18 18 19 19 19 18 18 19 19 19 19 19 19 19 19
16 17 17 17 17 17 16 17 16 16 15 15 15 15 14 14 15 15 15 15 15 15 14 14 15 15 16 16 17 17 18 18 18 17 18 18 18 18 18 18 18 18 18 18
16 16 16 16 16 16 15 15 15 14 15 15 14 14 14 14 14 15 15 14 14 14 14 14 14 14 15 15 16 16 16 17 17 17 17 17 17 17 17 17 17 16 16 16
14 14 14 14 14 15 15 15 15 15 15 14 14 14 14 14 14 14 14 13 13 13 13 14 14 14 14 14 15 15 16 16 17 17 17 17 17 16 16 15 15 14 14 14
14 14 14 14 14 14 15 14 14 14 14 14 14 14 14 14 14 13 13 13 13 13 13 13 14 14 14 14 15 15 16 16 16 16 16 16 16 15 15 15 14 14 13 13
Wind_Direction
255 256 255 252 252 252 253 255 256 255 255 256 256 258 259 261 261 261 261 260 260 260 259 258 259 260 260 261 261 260 260 261 262 264 264 264 264 266 268 270 271 271 271 271
254 254 254 253 254 256 256 254 254 254 253 254 256 259 261 263 263 262 262 262 261 260 259 258 259 260 260 261 261 262 261 262 263 264 264 264 264 266 268 271 272 273 272 273
256 255 254 253 253 256 256 256 256 256 255 256 257 258 260 262 263 263 263 262 261 260 260 259 259 259 260 260 261 262 263 264 264 265 265 264 265 266 268 270 272 274 274 274
258 256 255 255 254 254 255 256 258 258 258 259 259 258 259 261 263 265 265 263 262 261 260 259 259 259 260 260 261 262 263 265 266 266 266 266 266 267 269 271 273 274 275 275
258 259 257 254 255 256 256 256 258 259 258 258 259 260 260 262 264 267 267 265 264 263 261 260 260 260 261 262 262 263 264 265 267 268 268 267 267 268 270 272 274 275 276 276
257 259 259 259 259 258 259 259 258 260 261 261 261 261 261 263 266 269 270 267 265 264 262 262 261 261 263 264 264 264 265 266 268 269 270 269 268 269 271 273 275 276 277 276
256 259 259 260 260 260 260 262 263 264 264 264 264 264 264 265 267 269 270 268 266 264 263 263 263 263 264 264 264 264 265 266 269 270 270 270 270 271 272 274 275 277 277 276
256 257 258 258 260 261 260 260 263 264 265 265 265 265 266 267 269 270 269 268 265 265 263 262 262 263 263 264 264 265 266 267 269 270 271 272 272 273 273 274 275 277 277 276
257 258 257 258 260 262 261 261 263 265 266 266 267 267 268 268 268 268 270 270 268 266 266 263 262 262 262 263 264 264 265 266 268 269 271 272 273 273 273 274 275 275 275 275
259 256 255 256 258 260 261 262 264 266 267 268 269 268 267 267 268 268 270 272 269 268 268 265 263 262 262 263 264 265 266 266 267 268 270 271 272 274 275 274 273 273 274 274
259 255 252 254 257 260 261 262 265 268 270 269 269 268 268 267 268 269 271 272 271 269 267 266 264 262 264 264 264 264 265 267 267 268 270 271 272 274 274 273 272 273 274 274
255 252 252 253 254 257 260 263 267 269 270 269 269 268 267 268 270 271 271 271 269 269 269 267 265 264 265 267 265 264 266 267 267 267 269 270 271 272 273 272 273 273 274 274
257 254 253 254 256 259 261 263 267 271 271 271 271 271 270 270 270 271 271 270 269 269 270 270 268 267 267 268 269 268 268 268 267 267 268 269 271 271 272 273 273 273 274 274
258 256 254 255 259 261 262 264 268 271 273 273 273 272 271 270 269 270 270 270 270 270 271 272 271 270 270 271 272 271 269 268 267 267 268 269 270 271 273 273 273 272 272 272
256 257 257 257 260 263 265 268 270 271 272 273 273 272 271 270 271 271 271 270 270 270 271 272 272 272 271 272 273 271 269 268 267 267 268 269 271 273 274 273 273 273 272 272
255 257 260 263 264 267 269 271 273 272 272 272 271 272 272 272 272 272 272 271 270 271 272 272 271 271 272 272 271 270 268 268 269 269 270 270 272 273 272 273 274 273 272 272
256 260 263 265 267 270 272 272 273 273 273 273 272 272 272 273 274 274 272 271 271 271 271 270 271 271 271 270 269 268 269 270 270 270 269 271 271 272 272 273 272 271 271 272
260 263 266 268 271 272 272 271 272 273 274 273 273 273 273 274 274 274 273 272 272 272 271 271 271 271 270 269 268 267 268 270 270 270 270 269 269 271 273 273 272 272 272 272
263 265 268 270 271 272 271 270 272 273 272 273 274 274 274 274 275 274 274 274 272 272 272 272 272 272 270 268 267 268 269 269 269 269 269 268 269 270 272 272 271 272 273 273
264 265 268 270 270 269 269 270 272 272 273 274 275 275 274 275 275 274 274 274 274 274 273 273 272 272 269 267 267 267 267 267 269 270 269 269 270 271 272 271 270 272 274 273
264 265 267 267 267 269 270 271 271 272 273 275 275 274 274 275 275 275 276 276 276 276 276 275 272 270 268 267 266 265 265 266 268 268 269 270 270 270 269 269 271 272 272 270
263 264 265 266 267 270 271 272 271 271 273 274 275 276 277 277 277 278 279 278 278 278 278 275 272 269 266 265 264 263 264 266 266 267 269 269 269 269 269 270 272 273 271 269
265 264 265 266 268 272 274 273 272 272 271 272 275 279 282 282 282 281 280 279 279 279 279 276 272 268 267 266 266 266 266 267 267 267 267 267 269 270 270 272 273 273 271 269
265 264 267 268 270 274 276 274 273 272 271 272 274 278 280 281 283 283 282 281 280 279 279 278 275 272 270 268 267 267 268 268 268 268 267 268 269 270 271 272 273 273 271 269
263 266 268 268 269 272 274 273 272 272 272 273 274 277 280 283 284 283 282 281 280 278 278 279 279 277 272 269 269 269 268 268 268 267 268 269 271 271 272 272 272 271 269 269
264 267 269 269 270 272 273 273 271 271 271 271 273 277 281 282 283 283 282 280 279 277 278 279 281 281 277 275 274 273 272 272 271 269 268 270 271 271 270 269 268 268 268 269
265 266 267 268 271 273 274 274 273 271 269 269 272 276 277 278 280 280 279 279 279 279 279 280 281 280 277 276 278 277 276 275 271 269 268 269 269 269 267 265 265 264 265 267
Height
5564 5565 5566 5568 5569 5570 5571 5573 5574 5577 5579 5582 5582 5583 5584 5585 5586 5587 5587 5588 5589 5589 5590 5591 5592 5592 5593 5593 5594 5594 5595 5595 5595 5596 5596 5596 5596 5596 5596 5595 5595 5594 5593 5592
5556 5557 5557 5559 5561 5563 5564 5565 5566 5568 5571 5573 5573 5574 5575 5576 5577 5578 5579 5579 5580 5580 5581 5582 5582 5583 5584 5584 5584 5585 5585 5586 5586 5586 5586 5586 5586 5586 5586 5585 5585 5584 5583 5582
5548 5549 5549 5551 5555 5556 5557 5558 5559 5560 5564 5564 5565 5566 5567 5567 5567 5568 5569 5570 5570 5571 5572 5572 5573 5574 5574 5575 5575 5575 5576 5576 5576 5576 5576 5576 5576 5576 5576 5575 5575 5574 5573 5572
5540 5542 5542 5548 5548 5548 5549 5550 5552 5553 5554 5555 5556 5557 5558 5558 5558 5559 5560 5560 5561 5562 5562 5563 5564 5564 5565 5565 5566 5566 5566 5566 5566 5566 5566 5566 5566 5566 5566 5565 5565 5564 5563 5561
5532 5533 5535 5540 5541 5540 5541 5543 5544 5544 5545 5546 5547 5548 5549 5549 5550 5550 5551 5551 5551 5552 5552 5553 5553 5554 5555 5555 5556 5556 5556 5556 5556 5556 5556 5556 5556 5556 5556 5555 5554 5554 5552 5551
5526 5526 5528 5533 5533 5532 5533 5535 5537 5536 5537 5538 5538 5539 5542 5541 5541 5541 5541 5541 5541 5542 5542 5543 5544 5544 5545 5546 5547 5547 5547 5547 5547 5546 5546 5546 5546 5546 5546 5545 5544 5543 5542 5541
5519 5518 5520 5525 5525 5525 5527 5529 5528 5528 5528 5529 5529 5531 5532 5531 5531 5531 5531 5531 5531 5532 5533 5534 5534 5535 5536 5537 5537 5537 5537 5537 5537 5537 5537 5536 5536 5536 5535 5535 5534 5533 5532 5530
5512 5512 5516 5517 5517 5518 5519 5519 5519 5519 5520 5520 5521 5521 5521 5521 5521 5521 5521 5521 5522 5522 5523 5523 5524 5525 5526 5527 5527 5527 5528 5528 5528 5528 5527 5527 5526 5526 5525 5524 5524 5522 5521 5520
5505 5508 5509 5509 5509 5510 5511 5511 5511 5512 5512 5512 5512 5513 5513 5512 5512 5512 5512 5512 5512 5512 5513 5513 5514 5515 5516 5517 5517 5517 5518 5518 5518 5518 5518 5517 5517 5516 5515 5514 5513 5512 5511 5510
5497 5499 5501 5501 5502 5502 5503 5503 5504 5504 5504 5504 5504 5504 5504 5504 5503 5503 5503 5503 5503 5503 5503 5503 5504 5504 5505 5506 5507 5508 5508 5508 5508 5508 5508 5507 5507 5506 5505 5504 5503 5502 5501 5500
5490 5492 5493 5494 5495 5495 5496 5496 5496 5496 5496 5496 5496 5496 5496 5495 5495 5495 5495 5494 5494 5493 5493 5494 5494 5495 5495 5496 5497 5497 5498 5498 5498 5498 5498 5498 5497 5496 5495 5494 5493 5492 5491 5490
5484 5485 5486 5487 5488 5488 5488 5489 5489 5489 5489 5488 5488 5488 5487 5487 5487 5486 5486 5486 5485 5485 5484 5484 5485 5485 5486 5486 5487 5487 5488 5488 5488 5488 5488 5488 5488 5487 5486 5485 5484 5483 5482 5481
5476 5477 5478 5480 5480 5481 5481 5481 5481 5481 5481 5480 5480 5480 5479 5479 5479 5478 5478 5477 5477 5477 5476 5476 5476 5477 5477 5477 5477 5478 5478 5478 5478 5478 5478 5478 5478 5477 5477 5476 5475 5474 5473 5472
5469 5470 5471 5473 5473 5473 5473 5474 5474 5473 5473 5472 5472 5472 5471 5471 5470 5470 5470 5469 5469 5468 5468 5468 5468 5468 5468 5468 5468 5468 5468 5468 5469 5469 5469 5469 5468 5468 5467 5466 5466 5465 5464 5463
5463 5464 5465 5466 5466 5466 5466 5466 5466 5465 5465 5464 5464 5463 5463 5463 5462 5462 5461 5461 5460 5460 5460 5460 5460 5460 5460 5460 5459 5459 5459 5459 5460 5460 5460 5459 5459 5459 5458 5457 5456 5456 5455 5454
5456 5457 5458 5458 5459 5459 5459 5458 5458 5458 5457 5457 5456 5456 5455 5455 5454 5454 5453 5452 5452 5452 5452 5451 5451 5451 5451 5451 5451 5451 5451 5451 5451 5451 5451 5451 5450 5450 5449 5448 5448 5447 5446 5446
5450 5451 5451 5451 5452 5451 5451 5451 5450 5450 5449 5449 5448 5448 5447 5447 5446 5446 5445 5444 5444 5444 5443 5443 5443 5442 5442 5442 5442 5442 5442 5443 5443 5442 5442 5442 5442 5441 5441 5440 5440 5439 5439 5438
5443 5443 5444 5444 5444 5444 5444 5443 5443 5443 5442 5441 5441 5440 5440 5439 5439 5438 5437 5437 5436 5435 5435 5434 5434 5434 5434 5434 5434 5434 5435 5435 5434 5434 5434 5434 5434 5433 5433 5432 5432 5432 5431 5431
5436 5436 5436 5436 5437 5436 5436 5436 5436 5435 5435 5434 5434 5433 5433 5432 5431 5430 5429 5429 5428 5428 5428 5427 5426 5426 5426 5426 5426 5427 5427 5427 5427 5427 5426 5426 5426 5426 5425 5425 5425 5425 5424 5424
5429 5430 5429 5429 5429 5429 5429 5429 5429 5428 5428 5427 5427 5426 5425 5425 5424 5423 5423 5422 5421 5420 5420 5419 5419 5419 5419 5419 5419 5419 5419 5419 5419 5419 5419 5419 5419 5419 5419 5419 5418 5418 5417 5417
5422 5422 5422 5423 5422 5422 5422 5422 5422 5422 5421 5420 5420 5419 5419 5418 5417 5416 5416 5415 5414 5413 5412 5412 5412 5411 5411 5412 5412 5412 5412 5413 5413 5413 5413 5412 5412 5412 5412 5412 5412 5411 5411 5410
5416 5416 5416 5416 5416 5416 5416 5416 5415 5415 5415 5414 5414 5413 5412 5412 5411 5410 5409 5408 5408 5407 5406 5405 5405 5405 5405 5405 5405 5405 5406 5406 5406 5406 5406 5406 5406 5406 5405 5405 5405 5404 5404 5404
5410 5410 5410 5410 5411 5410 5410 5409 5409 5409 5408 5408 5408 5407 5406 5406 5405 5404 5404 5403 5402 5401 5400 5400 5399 5399 5399 5399 5399 5399 5399 5399 5399 5399 5399 5399 5399 5399 5399 5399 5398 5398 5397 5397
5404 5404 5405 5405 5405 5405 5404 5403 5403 5403 5403 5402 5402 5402 5401 5400 5400 5399 5398 5397 5396 5396 5395 5394 5394 5393 5393 5393 5393 5393 5393 5393 5393 5393 5393 5393 5393 5393 5393 5392 5392 5392 5391 5391
5399 5399 5399 5399 5399 5399 5398 5398 5398 5398 5397 5397 5397 5396 5396 5395 5395 5394 5393 5392 5391 5391 5390 5389 5389 5388 5388 5387 5387 5387 5387 5387 5386 5386 5386 5386 5386 5386 5386 5386 5386 5386 5385 5385
5394 5394 5394 5394 5394 5394 5393 5393 5393 5393 5393 5392 5392 5392 5391 5391 5390 5389 5388 5387 5387 5386 5385 5384 5384 5383 5382 5382 5381 5381 5381 5380 5380 5380 5380 5380 5380 5380 5380 5380 5380 5380 5380 5380
5389 5389 5389 5389 5389 5389 5388 5388 5388 5388 5388 5388 5387 5387 5387 5386 5385 5384 5383 5383 5382 5381 5380 5379 5379 5378 5377 5376 5376 5375 5375 5374 5374 5374 5374 5374 5374 5374 5374 5374 5375 5375 5375 5375